Weather History for Oscoda, MI

Change the Weather History Date:

Tuesday, May 14, 2013

  Actual Average Record
Temperature  
Mean Temperature 42 °F -  
Max Temperature 52 °F 60 °F 76 °F (2012)
Min Temperature 33 °F 42 °F 33 °F (2012)
Degree Days  
Heating Degree Days 22    
Moisture  
Dew Point 38 °F    
Average Humidity 79    
Maximum Humidity 95    
Minimum Humidity 59    
Precipitation  
Precipitation 0.09 in - - ()
Sea Level Pressure  
Sea Level Pressure 29.91 in    
Wind  
Wind Speed 5 mph (SE)    
Max Wind Speed 18 mph    
Max Gust Speed 25 mph    
Visibility 10 miles    
Events Rain    
Averages and records for this station are not official NWS values.
T = Trace of Precipitation, MM = Missing Value Source: NWS Daily Summary

Daily Weather History Graph

Daily Weather History Graph

Search for Another Location

Airport:

Trip Planner

Search our weather history database for the weather conditions in past years. The results will help you decide how hot, cold, wet, or windy it might be!

Date:

Astronomy

May. 14, 2013 Rise Set
Actual Time 6:07 AM EDT 8:53 PM EDT
Civil Twilight 5:33 AM EDT 9:27 PM EDT
Nautical Twilight 4:50 AM EDT 10:10 PM EDT
Astronomical Twilight 4:01 AM EDT 10:59 PM EDT
Moon 9:46 AM EDT (5/14) 12:01 AM EDT (5/14)
Length of Visible Light 15h 53m
Length of Day
14h 46m
Waxing Crescent, 19% of the Moon is Illuminated
May 14
Waxing Crescent
May 18
First Quarter
May 25
Full
May 31
Last Quarter
Jun 8
New

Hourly Weather History & Observations

Time (EDT) Temp. Windchill Dew Point Humidity Pressure Visibility Wind Dir Wind Speed Gust Speed Precip Events Conditions
12:14 AM 33.1 °F - 31.8 °F 95% 30.05 in 10.0 mi Calm Calm - N/A   Clear
12:34 AM 33.8 °F - 32.0 °F 93% 30.05 in 10.0 mi Calm Calm - N/A   Clear
12:53 AM 35.1 °F - 32.2 °F 89% 30.05 in 10.0 mi Calm Calm - N/A   Clear
1:14 AM 35.2 °F 32.4 °F 32.4 °F 89% 30.04 in 10.0 mi NW 3.5 mph - N/A   Clear
1:34 AM 35.6 °F - 32.9 °F 90% 30.04 in 10.0 mi Calm Calm - N/A   Clear
1:54 AM 35.6 °F - 32.9 °F 90% 30.03 in 10.0 mi Calm Calm - N/A   Mostly Cloudy
2:14 AM 36.0 °F - 33.1 °F 89% 30.02 in 10.0 mi Calm Calm - N/A   Mostly Cloudy
2:34 AM 35.6 °F - 32.9 °F 90% 30.02 in 10.0 mi Calm Calm - N/A   Mostly Cloudy
2:54 AM 35.1 °F - 32.5 °F 91% 30.02 in 10.0 mi Calm Calm - N/A   Mostly Cloudy
3:14 AM 35.1 °F - 32.4 °F 90% 30.02 in 10.0 mi Calm Calm - N/A   Scattered Clouds
3:34 AM 35.6 °F - 32.9 °F 90% 30.02 in 10.0 mi Calm Calm - N/A   Mostly Cloudy
3:54 AM 35.6 °F - 33.8 °F 93% 30.01 in 10.0 mi Calm Calm - N/A   Overcast
4:14 AM 37.6 °F 35.1 °F 35.4 °F 92% 30.01 in 10.0 mi SW 3.5 mph - N/A   Overcast
4:34 AM 39.0 °F 33.4 °F 34.7 °F 84% 30.01 in 10.0 mi SW 8.1 mph - N/A   Overcast
4:54 AM 39.4 °F 35.2 °F 32.9 °F 78% 30.00 in 10.0 mi SW 5.8 mph - N/A   Overcast
5:14 AM 39.0 °F 33.4 °F 33.8 °F 82% 30.00 in 10.0 mi SW 8.1 mph - N/A Rain Light Rain
5:34 AM 39.2 °F 37.0 °F 34.2 °F 82% 29.99 in 10.0 mi SW 3.5 mph - N/A Rain Light Rain
5:54 AM 40.1 °F - 34.5 °F 80% 29.99 in 10.0 mi Calm Calm - N/A Rain Light Rain
6:14 AM 39.7 °F - 34.3 °F 81% 29.99 in 10.0 mi Calm Calm - N/A Rain Light Rain
6:34 AM 39.6 °F - 34.7 °F 83% 30.00 in 10.0 mi Calm Calm - 0.02 in Rain Light Rain
6:54 AM 39.6 °F - 37.2 °F 91% 30.01 in 7.0 mi Calm Calm - 0.04 in Rain Rain
7:14 AM 40.1 °F - 36.3 °F 86% 30.01 in 7.0 mi Calm Calm - 0.01 in Rain Light Rain
7:34 AM 41.4 °F 39.4 °F 38.5 °F 89% 30.00 in 10.0 mi East 3.5 mph - 0.01 in Rain Light Rain
7:54 AM 41.9 °F 38.2 °F 39.4 °F 91% 30.00 in 7.0 mi East 5.8 mph - 0.02 in Rain Rain
8:14 AM 42.1 °F 37.7 °F 39.6 °F 91% 30.00 in 10.0 mi ESE 6.9 mph - 0.01 in Rain Light Rain
8:34 AM 41.9 °F 37.5 °F 39.6 °F 91% 29.99 in 10.0 mi SE 6.9 mph - 0.02 in Rain Rain
8:54 AM 41.9 °F 37.5 °F 39.6 °F 91% 29.99 in 10.0 mi SE 6.9 mph - 0.03 in Rain Light Rain
9:14 AM 41.9 °F 35.9 °F 39.4 °F 91% 29.98 in 10.0 mi SSE 10.4 mph - N/A   Overcast
9:34 AM 42.1 °F 37.1 °F 39.2 °F 90% 29.96 in 10.0 mi SE 8.1 mph - N/A   Overcast
9:54 AM 42.6 °F 37.8 °F 39.4 °F 88% 29.96 in 10.0 mi SSE 8.1 mph - N/A   Overcast
10:14 AM 43.9 °F 39.3 °F 40.1 °F 87% 29.95 in 10.0 mi SE 8.1 mph - N/A   Overcast
10:34 AM 45.3 °F 40.6 °F 40.5 °F 83% 29.93 in 10.0 mi SE 9.2 mph - N/A   Overcast
10:54 AM 45.5 °F 39.6 °F 40.1 °F 81% 29.92 in 10.0 mi SE 12.7 mph - N/A   Overcast
11:14 AM 45.9 °F 39.4 °F 40.1 °F 80% 29.90 in 10.0 mi SE 15.0 mph 18.4 mph N/A   Overcast
11:34 AM 47.1 °F - 40.3 °F 77% 29.89 in 10.0 mi SE 12.7 mph 18.4 mph N/A   Overcast
11:54 AM 48.2 °F - 40.3 °F 74% 29.90 in 10.0 mi ESE 13.8 mph 24.2 mph N/A   Overcast
12:14 PM 48.2 °F - 40.5 °F 75% 29.90 in 10.0 mi SE 13.8 mph 18.4 mph N/A   Overcast
12:34 PM 48.7 °F - 40.8 °F 74% 29.90 in 10.0 mi SE 10.4 mph 20.7 mph N/A   Overcast
12:54 PM 50.0 °F - 40.5 °F 70% 29.90 in 10.0 mi SE 12.7 mph 18.4 mph N/A   Overcast
1:14 PM 51.8 °F - 40.8 °F 66% 29.89 in 10.0 mi SSE 10.4 mph 21.9 mph N/A   Scattered Clouds
1:34 PM 52.7 °F - 39.2 °F 60% 29.89 in 10.0 mi SE 18.4 mph 24.2 mph N/A   Clear
1:54 PM 52.9 °F - 39.0 °F 59% 29.88 in 10.0 mi SSE 13.8 mph 25.3 mph N/A   Clear
2:13 PM 52.7 °F - 38.8 °F 59% 29.87 in 10.0 mi SE 16.1 mph 25.3 mph N/A   Clear
2:34 PM 52.7 °F - 39.2 °F 60% 29.87 in 10.0 mi SE 13.8 mph 20.7 mph N/A   Clear
2:54 PM 52.5 °F - 39.9 °F 62% 29.86 in 10.0 mi SE 11.5 mph 19.6 mph N/A   Clear
3:13 PM 51.6 °F - 40.6 °F 66% 29.86 in 10.0 mi SE 11.5 mph 17.3 mph N/A   Clear
3:34 PM 51.3 °F - 41.2 °F 68% 29.86 in 10.0 mi ESE 10.4 mph - N/A   Clear
3:54 PM 51.8 °F - 41.9 °F 69% 29.85 in 10.0 mi ESE 10.4 mph - N/A   Clear
4:14 PM 52.7 °F - 41.9 °F 67% 29.85 in 10.0 mi ESE 9.2 mph - N/A   Clear
4:34 PM 52.9 °F - 41.0 °F 64% 29.84 in 10.0 mi SE 9.2 mph - N/A   Clear
4:54 PM 52.7 °F - 40.8 °F 64% 29.85 in 10.0 mi SE 11.5 mph - N/A   Clear
5:14 PM 52.9 °F - 41.5 °F 65% 29.85 in 10.0 mi ESE 5.8 mph - N/A   Clear
5:34 PM 52.9 °F - 41.4 °F 65% 29.85 in 10.0 mi ESE 8.1 mph - N/A   Clear
5:54 PM 51.8 °F - 41.2 °F 67% 29.84 in 10.0 mi ESE 11.5 mph - N/A   Clear
6:14 PM 52.5 °F - 41.9 °F 67% 29.83 in 10.0 mi SE 8.1 mph - N/A   Clear
6:34 PM 51.3 °F - 41.4 °F 69% 29.82 in 10.0 mi SE 6.9 mph - N/A   Clear
6:54 PM 50.7 °F - 40.5 °F 68% 29.82 in 10.0 mi ESE 6.9 mph - N/A   Clear
7:14 PM 50.0 °F - 40.6 °F 70% 29.82 in 10.0 mi ESE 6.9 mph - N/A   Clear
7:34 PM 49.3 °F - 40.8 °F 73% 29.81 in 10.0 mi SE 6.9 mph - N/A   Clear
7:54 PM 49.3 °F - 40.3 °F 71% 29.80 in 10.0 mi SE 8.1 mph - N/A   Clear
8:14 PM 48.2 °F - 40.3 °F 74% 29.80 in 10.0 mi SE 6.9 mph - N/A   Clear
8:34 PM 47.5 °F - 40.8 °F 78% 29.79 in 10.0 mi ESE 6.9 mph - N/A   Clear
8:54 PM 46.6 °F - 41.2 °F 81% 29.78 in 10.0 mi ESE 5.8 mph - N/A   Clear
9:14 PM 46.4 °F 43.5 °F 41.0 °F 81% 29.77 in 10.0 mi SE 5.8 mph - N/A   Scattered Clouds
9:34 PM 45.9 °F 43.6 °F 41.4 °F 84% 29.77 in 10.0 mi ESE 4.6 mph - N/A   Scattered Clouds
9:53 PM 45.7 °F 41.5 °F 41.4 °F 85% 29.75 in 10.0 mi East 8.1 mph - N/A   Clear
10:14 PM 45.9 °F 44.6 °F 41.0 °F 83% 29.75 in 10.0 mi SE 3.5 mph - N/A   Scattered Clouds
10:34 PM 46.8 °F - 41.4 °F 81% 29.74 in 10.0 mi SE 5.8 mph - N/A Rain Light Rain
10:54 PM 47.3 °F - 40.8 °F 78% 29.76 in 10.0 mi South 4.6 mph - N/A   Clear
11:14 PM 47.5 °F - 40.8 °F 78% 29.74 in 10.0 mi South 5.8 mph - N/A   Scattered Clouds
11:34 PM 47.3 °F - 40.8 °F 78% 29.74 in 10.0 mi SSE 3.5 mph - N/A   Scattered Clouds
11:53 PM 47.5 °F - 41.4 °F 79% 29.74 in 10.0 mi Calm Calm - N/A Rain Light Rain